Preview of NWS' New Version of Forecast
This preview is not operational and should not be used for support decisions.

Regional Weather Roundup (RWR)

Issued by National Weather Service (NWS)

                            
000
ASUS43 KMKX 190121
RWRWI 

WISCONSIN REGIONAL WEATHER ROUNDUP
NATIONAL WEATHER SERVICE MILWAUKEE/SULLIVAN WI
800 PM CDT SUN AUG 18 2019

NOTE: "FAIR" INDICATES FEW OR NO CLOUDS BELOW 12,000 FEET WITH NO
SIGNIFICANT WEATHER AND/OR OBSTRUCTIONS TO VISIBILITY.

WIZ001-002-006>008-014>016-023>028-190200-
NORTHWEST WISCONSIN
  
CITY           SKY/WX    TMP DP  RH WIND       PRES   REMARKS
SUPERIOR ARPT  FAIR      62  46  54 CALM      29.83R                  
ASHLAND        FAIR      63  48  58 W5        29.82R                  
HAYWARD        FAIR      64  51  62 CALM      29.86R                  
SIREN          FAIR      65  48  53 W5        29.87R                  
CUMBERLAND     FAIR      61  50  67 W5        29.87R                  
RICE LAKE      FAIR      65  50  58 CALM      29.88R                  
CHETEK         FAIR      65  54  66 CALM      29.87R                  
LADYSMITH      FAIR      64  55  70 W5        29.88R                  
EAU CLAIRE     FAIR      66  55  67 NW5       29.86R                  
MENOMONIE      FAIR      64  51  60 CALM      29.87S                  
NEW RICHMOND   FAIR      63  53  67 W3        29.88R                  
OSCEOLA        FAIR      65  51  61 W5        29.90S                  
$$
 
WIZ003>005-009-010-017-018-190200-
NORTH CENTRAL WISCONSIN
  
CITY           SKY/WX    TMP DP  RH WIND       PRES   REMARKS
MANITOWISH WTR FAIR      57  56  99 CALM      29.84R                  
ARBOR VITAE    FAIR      62  56  81 CALM      29.84R                  
WOODRUFF       FAIR      62  56  81 CALM      29.84R                  
RHINELANDER    FAIR      64  54  69 W6        29.85R                  
EAGLE RIVER    FAIR      61  51  68 NW5       29.83R                  
LAND O LAKES   FAIR      56  54  92 W3        29.85R                  
PHILLIPS       FAIR      62  55  77 CALM      29.86R                  
TOMAHAWK       FAIR      60  56  84 CALM      29.85R                  
MEDFORD        FAIR      63  53  70 W7        29.86R                  
MERRILL        FAIR      65  58  77 CALM      29.85R                  
$$
 
WIZ029-030-035-036-043>047-190200-
CENTRAL WISCONSIN
  
CITY           SKY/WX    TMP DP  RH WIND       PRES   REMARKS
WAUSAU         FAIR      68  59  73 W9        29.82R                  
MOSINEE        PTCLDY    66  59  77 W8        29.85R                  
MARSHFIELD     FAIR      66  57  72 W6        29.85R                  
STEVENS POINT  FAIR      68  58  69 W5        29.85R                  
WAUPACA        FAIR      70  63  79 CALM      29.83R                  
WAUTOMA        FAIR      70  63  78 SW3       29.84S                  
WISC RAPIDS    FAIR      70  60  70 W6        29.84S                  
CAMP DOUGLAS   FAIR      67  62  84 W7        29.85R                  
$$
 
WIZ011>013-019>022-031-037>040-048>050-190200-
NORTHEAST WISCONSIN
  
CITY           SKY/WX    TMP DP  RH WIND       PRES   REMARKS
ANTIGO         FAIR      63  57  81 W6        29.85R                  
SHAWANO        FAIR      72  61  67 W5        29.81R                  
OCONTO         FAIR      70  62  75 W6        29.79R                  
STURGEON BAY   FAIR      72  63  73 W7        29.79R                  
GREEN BAY      FAIR      73  62  68 W5        29.80R                  
MANITOWOC      FAIR      72  63  73 SW6       29.82R                  
APPLETON       CLEAR     72  57  60 SW8       29.81R                  
CLINTONVILLE   FAIR      69  58  68 W6        29.82R                  
OSHKOSH        FAIR      72  62  71 VRB3      29.82S                  
$$
 
WIZ032>034-041-042-053>061-190200-
SOUTHWEST WISCONSIN
  
CITY           SKY/WX    TMP DP  RH WIND       PRES   REMARKS
LA CROSSE      FAIR      73  60  63 W6        29.85R                  
SPARTA         FAIR      68  61  77 W3        29.87R                  
VIROQUA        FAIR      68  65  89 W5        29.89R                  
BOSCOBEL       FAIR      73  67  81 CALM      29.85S                  
PRAIRIE DU CHI FAIR      74  64  72 CALM      29.85S                  
PLATTEVILLE    FAIR      73  68  87 CALM      29.88S                  
$$

WIZ056-057-062-063-064-067-068-190200-
SOUTH CENTRAL WISCONSIN
  
CITY           SKY/WX    TMP DP  RH WIND       PRES   REMARKS
REEDSBURG      FAIR      70  64  81 CALM      29.86R                  
BARABOO/DELLS  FAIR      68  63  83 CALM      29.86S                  
LONE ROCK      FAIR      72  67  84 CALM      29.85S                  
MINERAL POINT  FAIR      73  68  83 CALM      29.88S                  
MADISON        FAIR      71  64  78 CALM      29.85S                  
MIDDLETON      FAIR      72   6   8 CALM      29.87S                  
WATERTOWN      FAIR      72  66  82 CALM      29.86R                  
MONROE         FAIR      73  64  73 CALM      29.88R                  
JANESVILLE     PTCLDY    73  66  78 VRB5      29.87R                  
$$
 
WIZ051-052-058>065-066-070>072-190200-
SOUTHEAST WISCONSIN
  
CITY           SKY/WX    TMP DP  RH WIND       PRES   REMARKS
MILWAUKEE      FAIR      77  63  61 W5        29.85R                  
WAUKESHA       CLEAR     70  61  73 W7        29.87R                  
MILWAUKEE/TIMM PTCLDY    73  59  60 W5        29.86R                  
RACINE         FAIR      74  64  71 W3        29.87R                  
KENOSHA        FAIR      72  67  84 SW6       29.86R                  
FOND DU LAC    FAIR      72  63  73 SW5       29.84R                  
SHEBOYGAN      FAIR      69  62  78 SW6       29.83S                  
WEST BEND      FAIR      68  63  83 SW5       29.85R                  
JUNEAU         FAIR      68  64  86 S3        29.87R                  
$$

LSZ147-162-190200-
LAKE SUPERIOR
  
STATION/POSITION TIME  TEMP    WIND        PRES    WAVE
                       AIR SEA DIR/SP/G            HT/PER
                 (UTC) (F)     (DEG/KT/KT) (MB)    (FT/S)
W MID LAKE BUOY  0050   66 63  250/ 12/ 14 1007.0R   1/ 3
DEVILS ISLAND    0100   69     280/ 14/ 17 1008.7R
SAXON HARBOR     0030   67     210/  4/  6 1009.1R
$$
 
LMZ867-665-643>646-190200-
LAKE MICHIGAN
  
STATION/POSITION TIME  TEMP    WIND        PRES    WAVE
                       AIR SEA DIR/SP/G            HT/PER
                 (UTC) (F)     (DEG/KT/KT) (MB)    (FT/S)
S GREEN BAY BUOY 0000   78 69  240/ 14/ 16 1008.6
N MID LAKE BUOY  0100   71 70  250/ 10/ 12 1007.4
NORTHPORT PIER   0040   74     270/  3/  6 1007.5R
KEWAUNEE LAKESHO 0048          240/  2/  5   N/A
SHEBOYGAN LAKESH 0100   74     230/  6/  8 1009.8R
PORT WASHINGTON  0040   76     250/  2/  6 1011.2S
S MID LAKE BUOY  0100   74 73  280/  8/ 10 1010.7
KENOSHA   LAKESH 0100   77     250/  6/  7 1010.5
$$

TC  - TEMPERATURE IN CELSIUS
VSB - VISIBILITY IN STATUTE MILES
WCI - WIND CHILL INDEX
HX  - HEAT INDEX